TimeCDT,TemperatureF,Dew PointF,Humidity,Sea Level PressureIn,VisibilityMPH,Wind Direction,Wind SpeedMPH,Gust SpeedMPH,PrecipitationIn,Events,Conditions,WindDirDegrees,DateUTC
12:15 AM,68.0,64.4,88,30.09,10.0,Calm,Calm,-,N/A,,Partly Cloudy,0,2012-09-28 05:15:00
12:35 AM,68.0,66.2,94,30.08,10.0,Calm,Calm,-,N/A,,Partly Cloudy,0,2012-09-28 05:35:00
12:55 AM,68.0,64.4,88,30.08,10.0,NW,3.5,-,N/A,,Mostly Cloudy,310,2012-09-28 05:55:00
1:15 AM,66.2,66.2,100,30.09,10.0,NW,5.8,-,N/A,,Mostly Cloudy,310,2012-09-28 06:15:00
1:35 AM,66.2,66.2,100,30.09,10.0,Calm,Calm,-,N/A,,Scattered Clouds,0,2012-09-28 06:35:00
1:55 AM,66.2,64.4,94,30.09,10.0,NW,4.6,-,N/A,,Partly Cloudy,310,2012-09-28 06:55:00
2:35 AM,66.2,66.2,100,30.08,10.0,Calm,Calm,-,N/A,,Clear,0,2012-09-28 07:35:00
2:55 AM,66.2,66.2,100,30.08,9.0,East,3.5,-,N/A,,Partly Cloudy,100,2012-09-28 07:55:00
3:35 AM,66.2,66.2,100,30.08,7.0,ESE,3.5,-,N/A,,Scattered Clouds,110,2012-09-28 08:35:00
3:55 AM,66.2,66.2,100,30.08,8.0,Calm,Calm,-,N/A,,Clear,0,2012-09-28 08:55:00
4:15 AM,66.2,66.2,100,30.07,7.0,Calm,Calm,-,N/A,,Clear,0,2012-09-28 09:15:00
4:36 AM,66.2,66.2,100,30.07,8.0,Calm,Calm,-,N/A,,Clear,0,2012-09-28 09:36:00
4:55 AM,66.2,66.2,100,30.07,9.0,Calm,Calm,-,N/A,,Clear,0,2012-09-28 09:55:00
5:15 AM,66.2,66.2,100,30.08,8.0,NNW,4.6,-,N/A,,Partly Cloudy,330,2012-09-28 10:15:00
5:36 AM,66.2,66.2,100,30.07,8.0,Calm,Calm,-,N/A,,Scattered Clouds,0,2012-09-28 10:36:00
5:55 AM,66.2,66.2,100,30.07,7.0,Calm,Calm,-,N/A,,Partly Cloudy,0,2012-09-28 10:55:00
6:15 AM,66.2,66.2,100,30.08,8.0,Calm,Calm,-,N/A,,Scattered Clouds,0,2012-09-28 11:15:00
6:35 AM,66.2,66.2,100,30.08,7.0,Calm,Calm,-,N/A,,Scattered Clouds,0,2012-09-28 11:35:00
6:55 AM,66.2,64.4,94,30.09,9.0,WNW,4.6,-,N/A,,Partly Cloudy,300,2012-09-28 11:55:00
7:15 AM,66.2,66.2,100,30.10,5.0,NW,5.8,-,N/A,,Scattered Clouds,320,2012-09-28 12:15:00
7:35 AM,66.2,66.2,100,30.11,4.0,NW,6.9,-,0.01,,Scattered Clouds,320,2012-09-28 12:35:00
8:15 AM,66.2,66.2,100,30.09,4.0,NNE,8.1,-,N/A,,Mostly Cloudy,30,2012-09-28 13:15:00
8:35 AM,68.0,66.2,94,30.10,4.0,NE,4.6,-,N/A,,Mostly Cloudy,50,2012-09-28 13:35:00
9:15 AM,68.0,66.2,94,30.12,4.0,NNE,3.5,-,N/A,,Scattered Clouds,20,2012-09-28 14:15:00
9:35 AM,68.0,66.2,94,30.13,5.0,North,3.5,-,N/A,Thunderstorm,Partly Cloudy,10,2012-09-28 14:35:00
9:55 AM,68.0,68.0,100,30.14,3.0,Calm,Calm,-,N/A,,Mostly Cloudy,0,2012-09-28 14:55:00
10:15 AM,68.0,68.0,100,30.14,4.0,Calm,Calm,-,N/A,,Overcast,0,2012-09-28 15:15:00
10:35 AM,68.0,66.2,94,30.15,3.0,West,5.8,-,N/A,,Overcast,280,2012-09-28 15:35:00
10:55 AM,66.2,64.4,94,30.14,8.0,WNW,8.1,-,0.41,,Mostly Cloudy,300,2012-09-28 15:55:00
11:16 AM,66.2,64.4,94,30.14,9.0,Calm,Calm,-,0.08,,Mostly Cloudy,0,2012-09-28 16:16:00
11:35 AM,66.2,64.4,94,30.13,10.0,Calm,Calm,-,0.10,,Scattered Clouds,0,2012-09-28 16:35:00
11:55 AM,66.2,64.4,94,30.12,10.0,ESE,4.6,-,0.10,,Scattered Clouds,110,2012-09-28 16:55:00
12:35 PM,69.8,66.2,88,30.11,10.0,NE,3.5,-,N/A,,Partly Cloudy,50,2012-09-28 17:35:00
12:55 PM,69.8,68.0,94,30.11,10.0,Calm,Calm,-,N/A,,Scattered Clouds,0,2012-09-28 17:55:00
1:15 PM,71.6,66.2,83,30.11,10.0,Calm,Calm,-,N/A,,Scattered Clouds,0,2012-09-28 18:15:00
1:36 PM,71.6,68.0,88,30.10,10.0,NNE,4.6,-,N/A,,Mostly Cloudy,30,2012-09-28 18:36:00
1:55 PM,73.4,68.0,83,30.09,10.0,NNW,4.6,-,N/A,,Overcast,330,2012-09-28 18:55:00
2:15 PM,73.4,68.0,83,30.08,10.0,North,4.6,-,N/A,,Mostly Cloudy,360,2012-09-28 19:15:00
2:55 PM,75.2,68.0,78,30.08,10.0,NNE,5.8,-,N/A,,Mostly Cloudy,30,2012-09-28 19:55:00
3:15 PM,75.2,66.2,73,30.07,10.0,NNE,3.5,-,N/A,,Partly Cloudy,30,2012-09-28 20:15:00
3:35 PM,75.2,66.2,73,30.05,10.0,East,3.5,-,N/A,,Clear,80,2012-09-28 20:35:00
3:55 PM,75.2,66.2,73,30.05,10.0,NNW,4.6,-,N/A,,Clear,340,2012-09-28 20:55:00
4:15 PM,75.2,66.2,73,30.05,10.0,NNW,3.5,-,N/A,,Clear,330,2012-09-28 21:15:00
4:55 PM,75.2,66.2,73,30.04,10.0,North,4.6,-,N/A,,Partly Cloudy,360,2012-09-28 21:55:00
5:15 PM,75.2,66.2,73,30.04,10.0,NNE,8.1,-,N/A,,Partly Cloudy,30,2012-09-28 22:15:00
5:35 PM,75.2,68.0,78,30.04,10.0,NE,8.1,-,N/A,,Scattered Clouds,40,2012-09-28 22:35:00
6:15 PM,73.4,69.8,88,30.04,10.0,NE,5.8,-,N/A,,Overcast,50,2012-09-28 23:15:00
6:35 PM,73.4,69.8,88,30.05,10.0,NE,8.1,-,N/A,,Mostly Cloudy,40,2012-09-28 23:35:00
7:15 PM,71.6,66.2,83,30.05,10.0,NNE,10.4,-,N/A,,Overcast,20,2012-09-29 00:15:00
7:35 PM,69.8,66.2,88,30.05,10.0,NE,10.4,-,N/A,,Scattered Clouds,40,2012-09-29 00:35:00
7:55 PM,69.8,66.2,88,30.05,10.0,NE,9.2,-,N/A,,Clear,50,2012-09-29 00:55:00
8:15 PM,68.0,66.2,94,30.05,10.0,NE,10.4,-,N/A,,Clear,50,2012-09-29 01:15:00
8:35 PM,68.0,66.2,94,30.06,10.0,North,6.9,-,N/A,,Clear,360,2012-09-29 01:35:00
8:55 PM,68.0,66.2,94,30.07,10.0,North,6.9,-,N/A,,Mostly Cloudy,350,2012-09-29 01:55:00
9:35 PM,68.0,66.2,94,30.08,4.0,NNE,4.6,-,N/A,,Mostly Cloudy,30,2012-09-29 02:35:00
9:55 PM,66.2,66.2,100,30.08,4.0,North,5.8,-,N/A,,Partly Cloudy,10,2012-09-29 02:55:00
10:15 PM,66.2,64.4,94,30.08,8.0,NNE,6.9,-,N/A,,Clear,20,2012-09-29 03:15:00
10:55 PM,66.2,64.4,94,30.08,10.0,NNE,9.2,-,N/A,,Clear,20,2012-09-29 03:55:00
11:15 PM,66.2,64.4,94,30.09,8.0,NNE,9.2,-,N/A,,Clear,30,2012-09-29 04:15:00
11:35 PM,66.2,62.6,88,30.09,10.0,NNE,8.1,-,N/A,,Clear,30,2012-09-29 04:35:00
11:55 PM,66.2,62.6,88,30.10,10.0,NNE,6.9,-,N/A,,Partly Cloudy,30,2012-09-29 04:55:00
11:56 PM,64.4,62.6,94,30.10,10.0,NNE,8.1,-,N/A,,Partly Cloudy,30,2012-09-29 04:56:00